Weather History for KMIE - August, 2013

Change the Weather History Date:

Friday, August 2, 2013

  Actual Average Record
Temperature  
Mean Temperature 70 °F 73 °F  
Max Temperature 84 °F 83 °F 95 °F (1988)
Min Temperature 55 °F 64 °F 51 °F (1992)
Degree Days  
Heating Degree Days 0 0  
Month to date heating degree days 0 0  
Since 1 June heating degree days 21 27  
Since 1 July heating degree days 7 3  
Cooling Degree Days 5 9  
Month to date cooling degree days 9 18  
Year to date cooling degree days 613 611  
Since 1 June cooling degree days 445 528  
Growing Degree Days 18 (Base 50)    
Moisture  
Dew Point 58 °F    
Average Humidity 70    
Maximum Humidity 93    
Minimum Humidity 47    
Precipitation  
Precipitation 0.01 in 0.11 in 1.23 in (2000)
Month to date precipitation 0.01 0.23  
Year to date precipitation 22.62 24.84  
Sea Level Pressure  
Sea Level Pressure 29.95 in    
Wind  
Wind Speed 8 mph (SW)    
Max Wind Speed 21 mph    
Max Gust Speed 28 mph    
Visibility 10 miles    
Events      
T = Trace of Precipitation, MM = Missing Value Source: NWS Daily Summary

Daily Weather History Graph

Daily Weather History Graph

Search for Another Location

Airport or City:

Trip Planner

Search our weather history database for the weather conditions in past years. The results will help you decide how hot, cold, wet, or windy it might be!

Date:

Astronomy

Aug. 02, 2013 Rise Set
Actual Time 6:40 AM EDT 8:54 PM EDT
Civil Twilight 6:10 AM EDT 9:24 PM EDT
Nautical Twilight 5:32 AM EDT 10:01 PM EDT
Astronomical Twilight 4:51 AM EDT 10:42 PM EDT
Moon 3:00 AM EDT (8/2) 5:51 PM EDT (8/2)
Length of Visible Light 15h 14m
Length of Day
14h 13m
Waning Crescent, 16% of the Moon is Illuminated
Aug 2
Waning Crescent
Aug 6
New
Aug 14
First Quarter
Aug 20
Full
Aug 28
Last Quarter

Hourly Weather History & Observations

Time (EDT) Temp. Heat Index Dew Point Humidity Pressure Visibility Wind Dir Wind Speed Gust Speed Precip Events Conditions
12:53 AM 60.1 °F - 55.0 °F 83% 29.98 in 10.0 mi Calm Calm - N/A   Clear
1:53 AM 57.9 °F - 55.0 °F 90% 29.97 in 10.0 mi Calm Calm - N/A   Clear
2:53 AM 55.9 °F - 54.0 °F 93% 29.96 in 10.0 mi Calm Calm - N/A   Clear
3:53 AM 57.0 °F - 54.0 °F 89% 29.97 in 10.0 mi WSW 3.5 mph - N/A   Clear
4:53 AM 57.9 °F - 54.0 °F 87% 29.97 in 10.0 mi Calm Calm - N/A   Clear
5:53 AM 55.9 °F - 54.0 °F 93% 29.98 in 10.0 mi Calm Calm - N/A   Clear
6:53 AM 55.9 °F - 53.1 °F 90% 29.96 in 10.0 mi Calm Calm - N/A   Partly Cloudy
7:53 AM 61.0 °F - 55.9 °F 83% 29.97 in 10.0 mi South 3.5 mph - N/A   Scattered Clouds
8:53 AM 64.9 °F - 55.9 °F 73% 29.96 in 10.0 mi South 4.6 mph - N/A   Mostly Cloudy
9:53 AM 71.1 °F - 55.9 °F 59% 29.96 in 10.0 mi South 9.2 mph - N/A   Scattered Clouds
10:53 AM 73.0 °F - 57.0 °F 57% 29.97 in 10.0 mi South 9.2 mph - N/A   Partly Cloudy
11:53 AM 75.9 °F - 57.9 °F 54% 29.97 in 10.0 mi SSW 9.2 mph - N/A   Partly Cloudy
12:53 PM 75.0 °F - 57.0 °F 53% 29.99 in 10.0 mi SW 6.9 mph 20.7 mph N/A   Scattered Clouds
1:53 PM 80.1 °F 80.9 °F 60.1 °F 50% 29.96 in 10.0 mi SW 13.8 mph 20.7 mph N/A   Clear
2:53 PM 82.9 °F 83.2 °F 60.1 °F 46% 29.93 in 10.0 mi WSW 15.0 mph 26.5 mph N/A   Clear
3:53 PM 82.9 °F 83.2 °F 60.1 °F 46% 29.93 in 10.0 mi WSW 15.0 mph 27.6 mph N/A   Partly Cloudy
4:53 PM 81.0 °F 81.6 °F 60.1 °F 49% 29.91 in 10.0 mi SW 16.1 mph 21.9 mph N/A   Overcast
5:53 PM 78.1 °F - 60.1 °F 54% 29.91 in 10.0 mi WSW 13.8 mph 23.0 mph N/A   Mostly Cloudy
6:53 PM 75.9 °F - 61.0 °F 60% 29.92 in 10.0 mi SW 12.7 mph 18.4 mph N/A   Overcast
7:53 PM 75.0 °F - 62.1 °F 64% 29.92 in 10.0 mi SW 10.4 mph - N/A   Overcast
8:53 PM 73.9 °F - 63.0 °F 68% 29.93 in 10.0 mi SW 9.2 mph - N/A   Overcast
9:53 PM 73.9 °F - 63.0 °F 68% 29.94 in 10.0 mi SW 9.2 mph - N/A   Overcast
10:53 PM 73.0 °F - 63.0 °F 71% 29.91 in 10.0 mi SW 10.4 mph - N/A   Mostly Cloudy
11:53 PM 72.0 °F - 64.0 °F 76% 29.94 in 10.0 mi SW 5.8 mph - N/A   Overcast